contact:dominique.lefevre@mio.osupytheas.fr, maurice.libes@osupytheas.fr, didier.mallarino@osupytheas.fr
Project:EMSO http://www.emso-fr.org/EMSO-France
Depth: 2436.0 m
Title:EMSO Ligure Ouest : Data MII capteur MICROCAT
DateTime_Computer,Latitude,Longitude,Temperature,Conductivity,Pressure,DateTime_Instrument
DateTime_Computer,Latitude,Longitude,degC,S m-1,dbar,DateTime_Instrument
2019-12-04T00:00:23Z,42.805,6.029,13.2988,4.59991,2469.97,2019-12-04T02:00:52Z
2019-12-04T00:03:26Z,42.805,6.029,13.2983,4.59999,2470.007,2019-12-04T02:03:55Z
2019-12-04T00:06:29Z,42.805,6.029,13.2983,4.60015,2470.007,2019-12-04T02:06:58Z
2019-12-04T00:09:32Z,42.805,6.029,13.3002,4.60011,2469.984,2019-12-04T02:10:01Z
2019-12-04T00:12:35Z,42.805,6.029,13.2975,4.59997,2470.017,2019-12-04T02:13:05Z
2019-12-04T00:15:39Z,42.805,6.029,13.2967,4.59988,2469.993,2019-12-04T02:16:08Z
2019-12-04T00:18:42Z,42.805,6.029,13.2978,4.59994,2469.984,2019-12-04T02:19:11Z
2019-12-04T00:21:45Z,42.805,6.029,13.2987,4.59997,2469.97,2019-12-04T02:22:14Z
2019-12-04T00:24:48Z,42.805,6.029,13.2988,4.60029,2469.993,2019-12-04T02:25:17Z
2019-12-04T00:27:51Z,42.805,6.029,13.2994,4.60005,2470.007,2019-12-04T02:28:21Z
2019-12-04T00:30:55Z,42.805,6.029,13.2975,4.59986,2470.007,2019-12-04T02:31:24Z
2019-12-04T00:33:58Z,42.805,6.029,13.2967,4.59999,2469.993,2019-12-04T02:34:27Z
2019-12-04T00:37:01Z,42.805,6.029,13.2971,4.59999,2469.979,2019-12-04T02:37:30Z
2019-12-04T00:40:04Z,42.805,6.029,13.2986,4.60019,2469.993,2019-12-04T02:40:33Z
2019-12-04T00:43:07Z,42.805,6.029,13.2971,4.59991,2469.984,2019-12-04T02:43:37Z
2019-12-04T00:46:10Z,42.805,6.029,13.2980,4.60016,2470.007,2019-12-04T02:46:40Z
2019-12-04T00:49:14Z,42.805,6.029,13.2975,4.60007,2469.993,2019-12-04T02:49:43Z
2019-12-04T00:52:17Z,42.805,6.029,13.2968,4.60000,2469.97,2019-12-04T02:52:46Z
2019-12-04T00:55:20Z,42.805,6.029,13.2973,4.60013,2469.984,2019-12-04T02:55:49Z
2019-12-04T00:58:23Z,42.805,6.029,13.2993,4.60016,2469.947,2019-12-04T02:58:52Z
2019-12-04T01:01:26Z,42.805,6.029,13.2980,4.60005,2469.993,2019-12-04T03:01:56Z
2019-12-04T01:04:30Z,42.805,6.029,13.2982,4.60001,2470.017,2019-12-04T03:04:59Z
2019-12-04T01:07:33Z,42.805,6.029,13.2982,4.60007,2469.97,2019-12-04T03:08:02Z
2019-12-04T01:10:36Z,42.805,6.029,13.2979,4.59979,2469.97,2019-12-04T03:11:05Z
2019-12-04T01:13:39Z,42.805,6.029,13.2968,4.59980,2469.947,2019-12-04T03:14:08Z
2019-12-04T01:16:43Z,42.805,6.029,13.2967,4.60003,2470.007,2019-12-04T03:17:12Z
2019-12-04T01:19:46Z,42.805,6.029,13.2968,4.59983,2469.993,2019-12-04T03:20:15Z
2019-12-04T01:22:49Z,42.805,6.029,13.2968,4.59980,2469.97,2019-12-04T03:23:18Z
2019-12-04T01:25:52Z,42.805,6.029,13.2971,4.59988,2469.984,2019-12-04T03:26:21Z
2019-12-04T01:28:55Z,42.805,6.029,13.2974,4.59986,2469.984,2019-12-04T03:29:24Z
2019-12-04T01:31:58Z,42.805,6.029,13.2993,4.60000,2469.923,2019-12-04T03:32:28Z
2019-12-04T01:35:02Z,42.805,6.029,13.2970,4.60019,2469.97,2019-12-04T03:35:31Z
2019-12-04T01:38:05Z,42.805,6.029,13.2978,4.60007,2469.993,2019-12-04T03:38:34Z
2019-12-04T01:41:08Z,42.805,6.029,13.2979,4.60011,2469.974,2019-12-04T03:41:37Z
2019-12-04T01:44:11Z,42.805,6.029,13.2976,4.60002,2469.97,2019-12-04T03:44:40Z
2019-12-04T01:47:14Z,42.805,6.029,13.2983,4.60006,2470.007,2019-12-04T03:47:44Z
2019-12-04T01:50:18Z,42.805,6.029,13.2976,4.60003,2470.007,2019-12-04T03:50:47Z
2019-12-04T01:53:21Z,42.805,6.029,13.2976,4.59999,2469.947,2019-12-04T03:53:50Z
2019-12-04T01:56:24Z,42.805,6.029,13.2978,4.60006,2469.984,2019-12-04T03:56:53Z
2019-12-04T01:59:27Z,42.805,6.029,13.2973,4.59999,2469.97,2019-12-04T03:59:56Z
2019-12-04T02:02:30Z,42.805,6.029,13.2973,4.59983,2469.984,2019-12-04T04:02:59Z
2019-12-04T02:05:33Z,42.805,6.029,13.2977,4.60005,2469.97,2019-12-04T04:06:03Z
2019-12-04T02:08:37Z,42.805,6.029,13.2982,4.60003,2469.947,2019-12-04T04:09:06Z
2019-12-04T02:11:40Z,42.805,6.029,13.2979,4.59994,2469.947,2019-12-04T04:12:09Z
2019-12-04T02:14:43Z,42.805,6.029,13.2978,4.60004,2469.984,2019-12-04T04:15:12Z
2019-12-04T02:17:46Z,42.805,6.029,13.2983,4.60001,2469.993,2019-12-04T04:18:16Z
2019-12-04T02:20:50Z,42.805,6.029,13.2977,4.60007,2469.909,2019-12-04T04:21:19Z
2019-12-04T02:23:53Z,42.805,6.029,13.2975,4.60008,2470.007,2019-12-04T04:24:22Z
2019-12-04T02:26:56Z,42.805,6.029,13.2987,4.59999,2469.97,2019-12-04T04:27:25Z
2019-12-04T02:29:59Z,42.805,6.029,13.2982,4.60021,2469.96,2019-12-04T04:30:28Z
2019-12-04T02:33:03Z,42.805,6.029,13.2979,4.60009,2469.984,2019-12-04T04:33:32Z
2019-12-04T02:36:06Z,42.805,6.029,13.2983,4.60014,2469.96,2019-12-04T04:36:35Z
2019-12-04T02:39:09Z,42.805,6.029,13.2983,4.60000,2469.97,2019-12-04T04:39:38Z
2019-12-04T02:42:12Z,42.805,6.029,13.2983,4.60001,2469.97,2019-12-04T04:42:41Z
2019-12-04T02:45:15Z,42.805,6.029,13.2983,4.59988,2469.984,2019-12-04T04:45:45Z
2019-12-04T02:48:19Z,42.805,6.029,13.2988,4.60003,2469.97,2019-12-04T04:48:48Z
2019-12-04T02:51:22Z,42.805,6.029,13.2978,4.60014,2469.97,2019-12-04T04:51:51Z
2019-12-04T02:54:25Z,42.805,6.029,13.2987,4.59999,2469.984,2019-12-04T04:54:54Z
2019-12-04T02:57:28Z,42.805,6.029,13.2973,4.59985,2469.97,2019-12-04T04:57:58Z
2019-12-04T03:00:32Z,42.805,6.029,13.2970,4.59978,2469.984,2019-12-04T05:01:01Z
2019-12-04T03:03:35Z,42.805,6.029,13.2968,4.59979,2469.97,2019-12-04T05:04:04Z
2019-12-04T03:06:38Z,42.805,6.029,13.2968,4.59983,2469.97,2019-12-04T05:07:07Z
2019-12-04T03:09:41Z,42.805,6.029,13.2971,4.59986,2469.96,2019-12-04T05:10:10Z
2019-12-04T03:12:44Z,42.805,6.029,13.2990,4.59995,2469.96,2019-12-04T05:13:14Z
2019-12-04T03:15:48Z,42.805,6.029,13.2990,4.60009,2469.947,2019-12-04T05:16:17Z
2019-12-04T03:18:51Z,42.805,6.029,13.2980,4.59981,2469.947,2019-12-04T05:19:20Z
2019-12-04T03:21:54Z,42.805,6.029,13.2967,4.59992,2469.984,2019-12-04T05:22:23Z
2019-12-04T03:24:57Z,42.805,6.029,13.2991,4.59998,2469.947,2019-12-04T05:25:26Z
2019-12-04T03:28:00Z,42.805,6.029,13.2983,4.59998,2469.937,2019-12-04T05:28:30Z
2019-12-04T03:31:04Z,42.805,6.029,13.2979,4.59996,2469.933,2019-12-04T05:31:33Z
2019-12-04T03:34:07Z,42.805,6.029,13.2990,4.60009,2469.97,2019-12-04T05:34:36Z
2019-12-04T03:37:10Z,42.805,6.029,13.2987,4.59999,2469.96,2019-12-04T05:37:39Z
2019-12-04T03:40:13Z,42.805,6.029,13.2974,4.59999,2469.947,2019-12-04T05:40:43Z
2019-12-04T03:43:17Z,42.805,6.029,13.2989,4.60013,2469.947,2019-12-04T05:43:46Z
2019-12-04T03:46:20Z,42.805,6.029,13.2978,4.60004,2469.984,2019-12-04T05:46:49Z
2019-12-04T03:49:23Z,42.805,6.029,13.2983,4.60010,2469.984,2019-12-04T05:49:52Z
2019-12-04T03:52:26Z,42.805,6.029,13.2976,4.60019,2469.96,2019-12-04T05:52:55Z
2019-12-04T03:55:29Z,42.805,6.029,13.2979,4.60014,2469.97,2019-12-04T05:55:59Z
2019-12-04T03:58:33Z,42.805,6.029,13.2986,4.60004,2469.947,2019-12-04T05:59:02Z
2019-12-04T04:01:36Z,42.805,6.029,13.2992,4.60009,2469.937,2019-12-04T06:02:05Z
2019-12-04T04:04:39Z,42.805,6.029,13.2997,4.60022,2469.97,2019-12-04T06:05:08Z
2019-12-04T04:07:42Z,42.805,6.029,13.2986,4.60026,2469.97,2019-12-04T06:08:12Z
2019-12-04T04:10:46Z,42.805,6.029,13.3001,4.60024,2469.947,2019-12-04T06:11:15Z
2019-12-04T04:13:49Z,42.805,6.029,13.2998,4.59999,2469.96,2019-12-04T06:14:18Z
2019-12-04T04:16:52Z,42.805,6.029,13.2996,4.60011,2469.937,2019-12-04T06:17:21Z
2019-12-04T04:19:55Z,42.805,6.029,13.2974,4.60016,2469.947,2019-12-04T06:20:24Z
2019-12-04T04:22:58Z,42.805,6.029,13.2965,4.59994,2469.984,2019-12-04T06:23:28Z
2019-12-04T04:26:02Z,42.805,6.029,13.2968,4.59994,2469.947,2019-12-04T06:26:31Z
2019-12-04T04:29:05Z,42.805,6.029,13.2976,4.60005,2469.923,2019-12-04T06:29:34Z
2019-12-04T04:32:08Z,42.805,6.029,13.2988,4.60015,2469.984,2019-12-04T06:32:37Z
2019-12-04T04:35:11Z,42.805,6.029,13.3002,4.60031,2469.947,2019-12-04T06:35:40Z
2019-12-04T04:38:15Z,42.805,6.029,13.3011,4.60026,2469.97,2019-12-04T06:38:44Z
2019-12-04T04:41:18Z,42.805,6.029,13.2998,4.60029,2469.97,2019-12-04T06:41:47Z
2019-12-04T04:44:21Z,42.805,6.029,13.2983,4.60021,2469.937,2019-12-04T06:44:50Z
2019-12-04T04:47:24Z,42.805,6.029,13.2995,4.60027,2469.96,2019-12-04T06:47:53Z
2019-12-04T04:50:27Z,42.805,6.029,13.2986,4.60011,2469.96,2019-12-04T06:50:57Z
2019-12-04T04:53:31Z,42.805,6.029,13.2991,4.60026,2469.947,2019-12-04T06:54:00Z
2019-12-04T04:56:34Z,42.805,6.029,13.2997,4.60012,2469.914,2019-12-04T06:57:03Z
2019-12-04T04:59:37Z,42.805,6.029,13.2986,4.60031,2469.97,2019-12-04T07:00:06Z
2019-12-04T05:02:40Z,42.805,6.029,13.3023,4.60017,2469.937,2019-12-04T07:03:09Z
2019-12-04T05:05:43Z,42.805,6.029,13.2990,4.60021,2469.947,2019-12-04T07:06:13Z
2019-12-04T05:08:47Z,42.805,6.029,13.2980,4.60024,2469.97,2019-12-04T07:09:16Z
2019-12-04T05:11:50Z,42.805,6.029,13.2998,4.60011,2469.933,2019-12-04T07:12:19Z
2019-12-04T05:14:53Z,42.805,6.029,13.2990,4.60029,2469.914,2019-12-04T07:15:22Z
2019-12-04T05:17:56Z,42.805,6.029,13.2997,4.60018,2469.97,2019-12-04T07:18:25Z
2019-12-04T05:20:59Z,42.805,6.029,13.2996,4.60020,2469.96,2019-12-04T07:21:29Z
2019-12-04T05:24:03Z,42.805,6.029,13.2999,4.60024,2469.947,2019-12-04T07:24:32Z
2019-12-04T05:27:06Z,42.805,6.029,13.3006,4.60004,2469.937,2019-12-04T07:27:35Z
2019-12-04T05:30:09Z,42.805,6.029,13.2993,4.60035,2469.923,2019-12-04T07:30:38Z
2019-12-04T05:33:12Z,42.805,6.029,13.3014,4.60029,2469.947,2019-12-04T07:33:41Z
2019-12-04T05:36:15Z,42.805,6.029,13.2982,4.60036,2469.923,2019-12-04T07:36:45Z
2019-12-04T05:39:19Z,42.805,6.029,13.2986,4.60016,2469.923,2019-12-04T07:39:48Z
2019-12-04T05:42:22Z,42.805,6.029,13.2993,4.60027,2469.937,2019-12-04T07:42:51Z
2019-12-04T05:45:25Z,42.805,6.029,13.3001,4.60012,2469.947,2019-12-04T07:45:54Z
2019-12-04T05:48:28Z,42.805,6.029,13.2996,4.60034,2469.947,2019-12-04T07:48:58Z
2019-12-04T05:51:32Z,42.805,6.029,13.2991,4.60011,2469.947,2019-12-04T07:52:01Z
2019-12-04T05:54:35Z,42.805,6.029,13.2962,4.59990,2469.96,2019-12-04T07:55:04Z
2019-12-04T05:57:38Z,42.805,6.029,13.2981,4.60020,2469.947,2019-12-04T07:58:07Z
2019-12-04T06:00:41Z,42.805,6.029,13.2991,4.59999,2469.947,2019-12-04T08:01:10Z
2019-12-04T06:03:44Z,42.805,6.029,13.2972,4.60012,2469.947,2019-12-04T08:04:14Z
2019-12-04T06:06:48Z,42.805,6.029,13.2980,4.60024,2469.96,2019-12-04T08:07:17Z
2019-12-04T06:09:51Z,42.805,6.029,13.2981,4.60007,2469.947,2019-12-04T08:10:20Z
2019-12-04T06:12:54Z,42.805,6.029,13.2985,4.60024,2469.937,2019-12-04T08:13:23Z
2019-12-04T06:15:57Z,42.805,6.029,13.2994,4.60021,2469.947,2019-12-04T08:16:26Z
2019-12-04T06:19:00Z,42.805,6.029,13.2999,4.60019,2469.97,2019-12-04T08:19:30Z
2019-12-04T06:22:04Z,42.805,6.029,13.3000,4.60004,2469.96,2019-12-04T08:22:33Z
2019-12-04T06:25:07Z,42.805,6.029,13.2983,4.60016,2469.923,2019-12-04T08:25:36Z
2019-12-04T06:28:10Z,42.805,6.029,13.2987,4.60004,2469.97,2019-12-04T08:28:39Z
2019-12-04T06:31:13Z,42.805,6.029,13.2990,4.60023,2469.947,2019-12-04T08:31:43Z
2019-12-04T06:34:17Z,42.805,6.029,13.2990,4.60026,2469.96,2019-12-04T08:34:46Z
2019-12-04T06:37:20Z,42.805,6.029,13.2998,4.60016,2469.96,2019-12-04T08:37:49Z
2019-12-04T06:40:23Z,42.805,6.029,13.2985,4.60026,2469.947,2019-12-04T08:40:52Z
2019-12-04T06:43:26Z,42.805,6.029,13.2996,4.60004,2469.96,2019-12-04T08:43:55Z
2019-12-04T06:46:29Z,42.805,6.029,13.2994,4.60013,2469.947,2019-12-04T08:46:59Z
2019-12-04T06:49:33Z,42.805,6.029,13.2993,4.60003,2469.96,2019-12-04T08:50:02Z
2019-12-04T06:52:36Z,42.805,6.029,13.2972,4.60018,2469.947,2019-12-04T08:53:05Z
2019-12-04T06:55:39Z,42.805,6.029,13.2979,4.60016,2469.923,2019-12-04T08:56:08Z
2019-12-04T06:58:42Z,42.805,6.029,13.2982,4.60006,2469.951,2019-12-04T08:59:11Z
2019-12-04T07:01:45Z,42.805,6.029,13.2976,4.59996,2469.96,2019-12-04T09:02:15Z
2019-12-04T07:04:49Z,42.805,6.029,13.2990,4.60000,2469.993,2019-12-04T09:05:18Z
2019-12-04T07:07:52Z,42.805,6.029,13.2983,4.60009,2469.947,2019-12-04T09:08:21Z
2019-12-04T07:10:55Z,42.805,6.029,13.2980,4.60015,2469.96,2019-12-04T09:11:24Z
2019-12-04T07:13:58Z,42.805,6.029,13.2987,4.60013,2469.923,2019-12-04T09:14:28Z
2019-12-04T07:17:02Z,42.805,6.029,13.2977,4.60002,2469.923,2019-12-04T09:17:31Z
2019-12-04T07:20:05Z,42.805,6.029,13.2997,4.59998,2469.96,2019-12-04T09:20:34Z
2019-12-04T07:23:08Z,42.805,6.029,13.2972,4.60001,2469.947,2019-12-04T09:23:37Z
2019-12-04T07:26:11Z,42.805,6.029,13.2967,4.59986,2469.97,2019-12-04T09:26:40Z
2019-12-04T07:29:14Z,42.805,6.029,13.2966,4.60006,2469.984,2019-12-04T09:29:44Z
2019-12-04T07:32:18Z,42.805,6.029,13.2967,4.59991,2469.984,2019-12-04T09:32:47Z
2019-12-04T07:35:21Z,42.805,6.029,13.2968,4.59992,2469.947,2019-12-04T09:35:50Z
2019-12-04T07:38:24Z,42.805,6.029,13.2971,4.59982,2469.947,2019-12-04T09:38:53Z
2019-12-04T07:41:27Z,42.805,6.029,13.2967,4.59980,2469.96,2019-12-04T09:41:56Z
2019-12-04T07:44:31Z,42.805,6.029,13.2964,4.59976,2469.96,2019-12-04T09:45:00Z
2019-12-04T07:47:34Z,42.805,6.029,13.2971,4.59981,2469.96,2019-12-04T09:48:03Z
2019-12-04T07:50:37Z,42.805,6.029,13.2966,4.59981,2469.947,2019-12-04T09:51:06Z
2019-12-04T07:53:40Z,42.805,6.029,13.2967,4.59979,2469.984,2019-12-04T09:54:09Z
2019-12-04T07:56:43Z,42.805,6.029,13.2971,4.60007,2469.933,2019-12-04T09:57:12Z
2019-12-04T07:59:46Z,42.805,6.029,13.2963,4.59982,2469.984,2019-12-04T10:00:16Z
2019-12-04T08:02:50Z,42.805,6.029,13.2970,4.59982,2469.984,2019-12-04T10:03:19Z
2019-12-04T08:05:53Z,42.805,6.029,13.2968,4.59986,2469.96,2019-12-04T10:06:22Z
2019-12-04T08:08:56Z,42.805,6.029,13.2974,4.60003,2470.007,2019-12-04T10:09:25Z
2019-12-04T08:11:59Z,42.805,6.029,13.2970,4.59986,2469.984,2019-12-04T10:12:28Z
2019-12-04T08:15:02Z,42.805,6.029,13.2968,4.59983,2469.947,2019-12-04T10:15:32Z
2019-12-04T08:18:06Z,42.805,6.029,13.2961,4.59986,2469.993,2019-12-04T10:18:35Z
2019-12-04T08:21:09Z,42.805,6.029,13.2965,4.59981,2470.007,2019-12-04T10:21:38Z
2019-12-04T08:24:12Z,42.805,6.029,13.2971,4.59978,2469.993,2019-12-04T10:24:41Z
2019-12-04T08:27:15Z,42.805,6.029,13.2967,4.59976,2470.007,2019-12-04T10:27:44Z
2019-12-04T08:30:18Z,42.805,6.029,13.2966,4.59978,2470.017,2019-12-04T10:30:48Z
2019-12-04T08:33:22Z,42.805,6.029,13.2968,4.59978,2470.007,2019-12-04T10:33:51Z
2019-12-04T08:36:25Z,42.805,6.029,13.2967,4.59987,2469.96,2019-12-04T10:36:54Z
2019-12-04T08:39:28Z,42.805,6.029,13.2977,4.60001,2470.007,2019-12-04T10:39:57Z
2019-12-04T08:42:31Z,42.805,6.029,13.2979,4.60002,2469.993,2019-12-04T10:43:00Z
2019-12-04T08:45:34Z,42.805,6.029,13.2963,4.59989,2470.007,2019-12-04T10:46:03Z
2019-12-04T08:48:37Z,42.805,6.029,13.2973,4.59978,2469.993,2019-12-04T10:49:07Z
2019-12-04T08:51:41Z,42.805,6.029,13.2968,4.59980,2469.993,2019-12-04T10:52:10Z
2019-12-04T08:54:44Z,42.805,6.029,13.2966,4.59969,2469.97,2019-12-04T10:55:13Z
2019-12-04T08:57:47Z,42.805,6.029,13.2965,4.59977,2470.017,2019-12-04T10:58:16Z
2019-12-04T09:00:50Z,42.805,6.029,13.2968,4.59981,2470.04,2019-12-04T11:01:19Z
2019-12-04T09:03:53Z,42.805,6.029,13.2971,4.59978,2469.97,2019-12-04T11:04:23Z
2019-12-04T09:06:57Z,42.805,6.029,13.2971,4.59978,2470.017,2019-12-04T11:07:26Z
2019-12-04T09:10:00Z,42.805,6.029,13.2973,4.59993,2470.04,2019-12-04T11:10:29Z
2019-12-04T09:13:03Z,42.805,6.029,13.2968,4.59994,2470.017,2019-12-04T11:13:32Z
2019-12-04T09:16:06Z,42.805,6.029,13.2967,4.59974,2470.03,2019-12-04T11:16:35Z
2019-12-04T09:19:09Z,42.805,6.029,13.2964,4.59978,2470.017,2019-12-04T11:19:39Z
2019-12-04T09:22:13Z,42.805,6.029,13.2964,4.59976,2470.017,2019-12-04T11:22:42Z
2019-12-04T09:25:16Z,42.805,6.029,13.2963,4.59976,2470.007,2019-12-04T11:25:45Z
2019-12-04T09:28:19Z,42.805,6.029,13.2974,4.59994,2470.017,2019-12-04T11:28:48Z
2019-12-04T09:31:22Z,42.805,6.029,13.2968,4.59981,2470.007,2019-12-04T11:31:51Z
2019-12-04T09:34:25Z,42.805,6.029,13.2968,4.59973,2470.017,2019-12-04T11:34:55Z
2019-12-04T09:37:28Z,42.805,6.029,13.2968,4.59971,2470.053,2019-12-04T11:37:58Z
2019-12-04T09:40:32Z,42.805,6.029,13.2978,4.59982,2470.017,2019-12-04T11:41:01Z
2019-12-04T09:43:35Z,42.805,6.029,13.2973,4.59991,2470.053,2019-12-04T11:44:04Z
2019-12-04T09:46:38Z,42.805,6.029,13.2968,4.59992,2470.053,2019-12-04T11:47:07Z
2019-12-04T09:49:41Z,42.805,6.029,13.2965,4.59981,2470.053,2019-12-04T11:50:10Z
2019-12-04T09:52:44Z,42.805,6.029,13.2976,4.59974,2470.1,2019-12-04T11:53:14Z
2019-12-04T09:55:48Z,42.805,6.029,13.2961,4.59979,2470.053,2019-12-04T11:56:17Z
2019-12-04T09:58:51Z,42.805,6.029,13.2967,4.59973,2470.03,2019-12-04T11:59:20Z
2019-12-04T10:01:54Z,42.805,6.029,13.2967,4.59973,2470.04,2019-12-04T12:02:23Z
2019-12-04T10:04:57Z,42.805,6.029,13.2968,4.59983,2470.04,2019-12-04T12:05:26Z
2019-12-04T10:08:00Z,42.805,6.029,13.2971,4.59981,2470.04,2019-12-04T12:08:30Z
2019-12-04T10:11:04Z,42.805,6.029,13.2968,4.59982,2470.04,2019-12-04T12:11:33Z
2019-12-04T10:14:07Z,42.805,6.029,13.2970,4.59975,2470.053,2019-12-04T12:14:36Z
2019-12-04T10:17:10Z,42.805,6.029,13.2968,4.59978,2470.017,2019-12-04T12:17:39Z
2019-12-04T10:20:13Z,42.805,6.029,13.2965,4.59978,2470.04,2019-12-04T12:20:42Z
2019-12-04T10:23:16Z,42.805,6.029,13.2972,4.59978,2470.063,2019-12-04T12:23:46Z
2019-12-04T10:26:20Z,42.805,6.029,13.2967,4.59983,2470.077,2019-12-04T12:26:49Z
2019-12-04T10:29:23Z,42.805,6.029,13.2964,4.59978,2470.04,2019-12-04T12:29:52Z
2019-12-04T10:32:26Z,42.805,6.029,13.2968,4.59985,2470.063,2019-12-04T12:32:55Z
2019-12-04T10:35:29Z,42.805,6.029,13.2967,4.59991,2470.077,2019-12-04T12:35:58Z
2019-12-04T10:38:32Z,42.805,6.029,13.2975,4.59985,2470.063,2019-12-04T12:39:01Z
2019-12-04T10:41:35Z,42.805,6.029,13.2962,4.59974,2470.04,2019-12-04T12:42:05Z
2019-12-04T10:44:39Z,42.805,6.029,13.2969,4.59973,2470.04,2019-12-04T12:45:08Z
2019-12-04T10:47:42Z,42.805,6.029,13.2971,4.59996,2470.077,2019-12-04T12:48:11Z
2019-12-04T10:50:45Z,42.805,6.029,13.2967,4.59978,2470.077,2019-12-04T12:51:14Z
2019-12-04T10:53:48Z,42.805,6.029,13.2967,4.59978,2470.04,2019-12-04T12:54:17Z
2019-12-04T10:56:51Z,42.805,6.029,13.2970,4.59986,2470.1,2019-12-04T12:57:21Z
2019-12-04T10:59:55Z,42.805,6.029,13.2973,4.59998,2470.077,2019-12-04T13:00:24Z
2019-12-04T11:02:58Z,42.805,6.029,13.2968,4.59974,2470.087,2019-12-04T13:03:27Z
2019-12-04T11:06:01Z,42.805,6.029,13.2969,4.59978,2470.1,2019-12-04T13:06:30Z
2019-12-04T11:09:04Z,42.805,6.029,13.2966,4.59973,2470.087,2019-12-04T13:09:33Z
2019-12-04T11:12:07Z,42.805,6.029,13.2968,4.59980,2470.087,2019-12-04T13:12:36Z
2019-12-04T11:15:10Z,42.805,6.029,13.2963,4.59973,2470.1,2019-12-04T13:15:40Z
2019-12-04T11:18:14Z,42.805,6.029,13.2964,4.59972,2470.1,2019-12-04T13:18:43Z
2019-12-04T11:21:17Z,42.805,6.029,13.2964,4.59976,2470.1,2019-12-04T13:21:46Z
2019-12-04T11:24:20Z,42.805,6.029,13.2966,4.59970,2470.1,2019-12-04T13:24:49Z
2019-12-04T11:27:23Z,42.805,6.029,13.2967,4.59981,2470.087,2019-12-04T13:27:52Z
2019-12-04T11:30:26Z,42.805,6.029,13.2979,4.59992,2470.1,2019-12-04T13:30:56Z
2019-12-04T11:33:30Z,42.805,6.029,13.2970,4.59997,2470.1,2019-12-04T13:33:59Z
2019-12-04T11:36:33Z,42.805,6.029,13.2971,4.59977,2470.087,2019-12-04T13:37:02Z
2019-12-04T11:39:36Z,42.805,6.029,13.2968,4.59977,2470.087,2019-12-04T13:40:05Z
2019-12-04T11:42:39Z,42.805,6.029,13.2964,4.59976,2470.11,2019-12-04T13:43:08Z
2019-12-04T11:45:42Z,42.805,6.029,13.2971,4.59980,2470.087,2019-12-04T13:46:12Z
2019-12-04T11:48:46Z,42.805,6.029,13.2970,4.59995,2470.124,2019-12-04T13:49:15Z
2019-12-04T11:51:49Z,42.805,6.029,13.2974,4.59982,2470.087,2019-12-04T13:52:18Z
2019-12-04T11:54:52Z,42.805,6.029,13.2967,4.59983,2470.124,2019-12-04T13:55:21Z
2019-12-04T11:57:55Z,42.805,6.029,13.2970,4.59979,2470.063,2019-12-04T13:58:24Z
2019-12-04T12:00:58Z,42.805,6.029,13.2968,4.59995,2470.063,2019-12-04T14:01:28Z
2019-12-04T12:04:01Z,42.805,6.029,13.2967,4.59976,2470.11,2019-12-04T14:04:31Z
2019-12-04T12:07:05Z,42.805,6.029,13.2972,4.59978,2470.11,2019-12-04T14:07:34Z
2019-12-04T12:10:08Z,42.805,6.029,13.2967,4.59975,2470.11,2019-12-04T14:10:37Z
2019-12-04T12:13:11Z,42.805,6.029,13.2968,4.59985,2470.087,2019-12-04T14:13:40Z
2019-12-04T12:16:14Z,42.805,6.029,13.2965,4.59976,2470.133,2019-12-04T14:16:44Z
2019-12-04T12:19:17Z,42.805,6.029,13.2982,4.59994,2470.11,2019-12-04T14:19:47Z
2019-12-04T12:22:21Z,42.805,6.029,13.2970,4.59982,2470.11,2019-12-04T14:22:50Z
2019-12-04T12:25:24Z,42.805,6.029,13.2970,4.59976,2470.11,2019-12-04T14:25:53Z
2019-12-04T12:28:27Z,42.805,6.029,13.2975,4.59982,2470.124,2019-12-04T14:28:56Z
2019-12-04T12:31:30Z,42.805,6.029,13.2966,4.59974,2470.087,2019-12-04T14:31:59Z
2019-12-04T12:34:33Z,42.805,6.029,13.2969,4.59985,2470.087,2019-12-04T14:35:03Z
2019-12-04T12:37:37Z,42.805,6.029,13.2966,4.59976,2470.147,2019-12-04T14:38:06Z
2019-12-04T12:40:40Z,42.805,6.029,13.2964,4.59969,2470.11,2019-12-04T14:41:09Z
2019-12-04T12:43:43Z,42.805,6.029,13.2964,4.59974,2470.124,2019-12-04T14:44:12Z
2019-12-04T12:46:46Z,42.805,6.029,13.2961,4.59973,2470.133,2019-12-04T14:47:16Z
2019-12-04T12:49:49Z,42.805,6.029,13.2966,4.59976,2470.147,2019-12-04T14:50:19Z
2019-12-04T12:52:53Z,42.805,6.029,13.2973,4.59983,2470.124,2019-12-04T14:53:22Z
2019-12-04T12:55:56Z,42.805,6.029,13.2967,4.59971,2470.124,2019-12-04T14:56:25Z
2019-12-04T12:58:59Z,42.805,6.029,13.2966,4.59984,2470.133,2019-12-04T14:59:28Z
2019-12-04T13:02:02Z,42.805,6.029,13.2973,4.59992,2470.156,2019-12-04T15:02:32Z
2019-12-04T13:05:05Z,42.805,6.029,13.2969,4.59982,2470.124,2019-12-04T15:05:35Z
2019-12-04T13:08:09Z,42.805,6.029,13.2976,4.59979,2470.133,2019-12-04T15:08:38Z
2019-12-04T13:11:12Z,42.805,6.029,13.2967,4.59983,2470.124,2019-12-04T15:11:41Z
2019-12-04T13:14:15Z,42.805,6.029,13.2963,4.59986,2470.147,2019-12-04T15:14:44Z
2019-12-04T13:17:18Z,42.805,6.029,13.2968,4.59991,2470.133,2019-12-04T15:17:47Z
2019-12-04T13:20:21Z,42.805,6.029,13.2969,4.59987,2470.147,2019-12-04T15:20:51Z
2019-12-04T13:23:25Z,42.805,6.029,13.2969,4.59993,2470.124,2019-12-04T15:23:54Z
2019-12-04T13:26:28Z,42.805,6.029,13.2965,4.59979,2470.1,2019-12-04T15:26:57Z
2019-12-04T13:29:31Z,42.805,6.029,13.2968,4.59975,2470.11,2019-12-04T15:30:00Z
2019-12-04T13:32:34Z,42.805,6.029,13.2965,4.59971,2470.124,2019-12-04T15:33:03Z
2019-12-04T13:35:37Z,42.805,6.029,13.2967,4.59974,2470.11,2019-12-04T15:36:07Z
2019-12-04T13:38:40Z,42.805,6.029,13.2964,4.59972,2470.147,2019-12-04T15:39:10Z
2019-12-04T13:41:44Z,42.805,6.029,13.2967,4.59971,2470.147,2019-12-04T15:42:13Z
2019-12-04T13:44:47Z,42.805,6.029,13.2966,4.59969,2470.133,2019-12-04T15:45:16Z
2019-12-04T13:47:50Z,42.805,6.029,13.2968,4.59971,2470.124,2019-12-04T15:48:19Z
2019-12-04T13:50:53Z,42.805,6.029,13.2973,4.59979,2470.156,2019-12-04T15:51:23Z
2019-12-04T13:53:57Z,42.805,6.029,13.2965,4.59998,2470.11,2019-12-04T15:54:26Z
2019-12-04T13:57:00Z,42.805,6.029,13.2964,4.59977,2470.133,2019-12-04T15:57:29Z
2019-12-04T14:00:03Z,42.805,6.029,13.2973,4.59980,2470.124,2019-12-04T16:00:32Z
2019-12-04T14:03:06Z,42.805,6.029,13.2970,4.59976,2470.133,2019-12-04T16:03:35Z
2019-12-04T14:06:09Z,42.805,6.029,13.2964,4.59975,2470.133,2019-12-04T16:06:39Z
2019-12-04T14:09:12Z,42.805,6.029,13.2965,4.59976,2470.156,2019-12-04T16:09:42Z
2019-12-04T14:12:16Z,42.805,6.029,13.2964,4.59974,2470.133,2019-12-04T16:12:45Z
2019-12-04T14:15:19Z,42.805,6.029,13.2965,4.59971,2470.096,2019-12-04T16:15:48Z
2019-12-04T14:18:22Z,42.805,6.029,13.2966,4.59969,2470.156,2019-12-04T16:18:51Z
2019-12-04T14:21:25Z,42.805,6.029,13.2967,4.59972,2470.133,2019-12-04T16:21:55Z
2019-12-04T14:24:28Z,42.805,6.029,13.2969,4.59972,2470.133,2019-12-04T16:24:58Z
2019-12-04T14:27:32Z,42.805,6.029,13.2973,4.59981,2470.11,2019-12-04T16:28:01Z
2019-12-04T14:30:35Z,42.805,6.029,13.2979,4.59982,2470.11,2019-12-04T16:31:04Z
2019-12-04T14:33:38Z,42.805,6.029,13.2967,4.59978,2470.124,2019-12-04T16:34:07Z
2019-12-04T14:36:41Z,42.805,6.029,13.2966,4.59973,2470.133,2019-12-04T16:37:11Z
2019-12-04T14:39:45Z,42.805,6.029,13.2964,4.59970,2470.147,2019-12-04T16:40:14Z
2019-12-04T14:42:48Z,42.805,6.029,13.2968,4.59975,2470.147,2019-12-04T16:43:17Z
2019-12-04T14:45:51Z,42.805,6.029,13.2964,4.59978,2470.18,2019-12-04T16:46:20Z
2019-12-04T14:48:54Z,42.805,6.029,13.2965,4.59969,2470.156,2019-12-04T16:49:23Z
2019-12-04T14:51:57Z,42.805,6.029,13.2967,4.59974,2470.11,2019-12-04T16:52:27Z
2019-12-04T14:55:00Z,42.805,6.029,13.2964,4.59973,2470.133,2019-12-04T16:55:30Z
2019-12-04T14:58:04Z,42.805,6.029,13.2968,4.59988,2470.133,2019-12-04T16:58:33Z
2019-12-04T15:01:07Z,42.805,6.029,13.2968,4.59971,2470.171,2019-12-04T17:01:36Z